GPS BIIRM-6 (PRN 07)

Last updated on Sun Feb 15 2026 00:03:18 GMT+0000 (Coordinated Universal Time)

1 32711U 08012A 26044.49338818 -.00000016 00000+0 00000+0 0 9991 2 32711 54.4820 154.8675 0205856 245.8551 111.9670 2.00568407131272
UTC large
Height (km)
Speed (km/s)
/
Latitude / Longitude
Inclination (degrees)
Orbital Period (minutes)
Azimuth
Elevation
Range (km)
Doppler Factor

Next 0 passes for location: London (51.5072 / 0.1276)

Sorry there are no passes over London.